Time,TemperatureF,DewpointF,PressureIn,WindDirection,WindDirectionDegrees,WindSpeedMPH,WindSpeedGustMPH,Humidity,HourlyPrecipIn,Conditions,Clouds,dailyrainin,SoftwareType,DateUTC
2015-01-30 00:22:00,32.0,32.0,30.01,WNW,301,5.0,12.0,99,0.00,,,0.07,,2015-01-30 05:22:00,
2015-01-30 00:54:00,32.0,32.0,30.02,SSE,162,4.0,7.0,99,0.00,,,0.07,,2015-01-30 05:54:00,
2015-01-30 01:22:00,31.0,31.0,30.02,WNW,300,2.0,6.0,99,0.00,,,0.07,,2015-01-30 06:22:00,
2015-01-30 01:43:00,31.0,31.0,30.03,North,0,0.0,0.0,99,0.00,,,0.07,,2015-01-30 06:43:00,
2015-01-30 01:52:00,31.0,31.0,30.03,NNW,335,1.0,2.0,99,0.00,,,0.07,,2015-01-30 06:52:00,
2015-01-30 02:12:00,31.0,31.0,30.03,South,173,2.0,4.0,99,0.00,,,0.07,,2015-01-30 07:12:00,
2015-01-30 02:22:00,31.0,31.0,30.03,SSE,148,3.0,4.0,99,0.00,,,0.07,,2015-01-30 07:22:00,
2015-01-30 02:53:00,31.0,31.0,30.03,SE,140,2.0,4.0,99,0.00,,,0.07,,2015-01-30 07:53:00,
2015-01-30 03:22:00,31.0,31.0,30.03,East,97,3.0,5.0,99,0.00,,,0.07,,2015-01-30 08:22:00,
2015-01-30 03:53:00,31.0,31.0,30.04,SE,146,3.0,5.0,99,0.00,,,0.07,,2015-01-30 08:53:00,
2015-01-30 04:12:00,31.0,31.0,30.04,SW,235,4.0,6.0,99,0.00,,,0.07,,2015-01-30 09:12:00,
2015-01-30 04:22:00,31.0,31.0,30.06,South,190,5.0,9.0,99,0.00,,,0.07,,2015-01-30 09:22:00,
2015-01-30 04:54:00,29.0,29.0,30.07,South,175,6.0,12.0,99,0.00,,,0.07,,2015-01-30 09:54:00,
2015-01-30 05:13:00,28.0,28.0,30.08,SSW,195,6.0,8.0,99,0.00,,,0.07,,2015-01-30 10:13:00,
2015-01-30 05:23:00,28.0,28.0,30.09,South,184,7.0,10.0,99,0.00,,,0.07,,2015-01-30 10:23:00,
2015-01-30 05:44:00,28.0,28.0,30.10,NNW,346,3.0,6.0,99,0.00,,,0.07,,2015-01-30 10:44:00,
2015-01-30 05:54:00,29.0,28.0,30.10,SSW,204,4.0,8.0,97,0.00,,,0.07,,2015-01-30 10:54:00,
2015-01-30 06:13:00,28.0,27.0,30.11,NNW,346,3.0,6.0,96,0.00,,,0.07,,2015-01-30 11:13:00,
2015-01-30 06:23:00,28.0,27.0,30.11,South,186,5.0,7.0,94,0.00,,,0.07,,2015-01-30 11:23:00,
2015-01-30 06:53:00,28.0,25.0,30.13,West,259,5.0,8.0,88,0.00,,,0.07,,2015-01-30 11:53:00,
2015-01-30 07:22:00,27.0,24.0,30.16,WSW,237,5.0,12.0,87,0.00,,,0.07,,2015-01-30 12:22:00,
2015-01-30 07:43:00,25.0,24.0,30.17,NNE,17,7.0,11.0,95,0.00,,,0.07,,2015-01-30 12:43:00,
2015-01-30 07:53:00,24.0,23.0,30.17,North,2,3.0,5.0,97,0.00,,,0.07,,2015-01-30 12:53:00,
2015-01-30 08:12:00,24.0,23.0,30.18,NNE,13,4.0,8.0,94,0.00,,,0.07,,2015-01-30 13:12:00,
2015-01-30 08:22:00,24.0,22.0,30.19,NNE,14,7.0,13.0,93,0.00,,,0.07,,2015-01-30 13:22:00,
2015-01-30 08:42:00,24.0,21.0,30.20,NNE,23,5.0,11.0,88,0.00,,,0.07,,2015-01-30 13:42:00,
2015-01-30 08:52:00,23.0,19.0,30.21,NNE,17,5.0,9.0,83,0.00,,,0.07,,2015-01-30 13:52:00,
2015-01-30 09:22:00,24.0,19.0,30.22,SSW,205,5.0,8.0,82,0.00,,,0.07,,2015-01-30 14:22:00,
2015-01-30 09:42:00,23.0,18.0,30.24,SSW,208,9.0,12.0,80,0.00,,,0.07,,2015-01-30 14:42:00,
2015-01-30 09:52:00,23.0,17.0,30.25,NW,320,5.0,13.0,79,0.00,,,0.07,,2015-01-30 14:52:00,
2015-01-30 10:12:00,22.0,16.0,30.25,NNE,33,13.0,21.0,76,0.01,,,0.08,,2015-01-30 15:12:00,
2015-01-30 10:23:00,22.0,15.0,30.26,NW,319,10.0,18.0,73,0.01,,,0.08,,2015-01-30 15:23:00,
2015-01-30 10:54:00,23.0,15.0,30.27,NNE,33,8.0,12.0,70,0.01,,,0.07,,2015-01-30 15:54:00,
2015-01-30 11:13:00,23.0,14.0,30.28,North,3,5.0,12.0,69,0.00,,,0.07,,2015-01-30 16:13:00,
2015-01-30 11:24:00,23.0,14.0,30.29,West,270,11.0,18.0,68,0.00,,,0.07,,2015-01-30 16:24:00,
2015-01-30 11:44:00,24.0,14.0,30.29,North,8,8.0,16.0,66,0.00,,,0.07,,2015-01-30 16:44:00,
2015-01-30 11:55:00,23.0,14.0,30.30,SSW,210,12.0,20.0,69,0.00,,,0.07,,2015-01-30 16:55:00,
2015-01-30 12:23:00,21.0,13.0,30.32,West,272,11.0,15.0,71,0.00,,,0.07,,2015-01-30 17:23:00,
2015-01-30 12:44:00,22.0,13.0,30.32,NW,311,6.0,11.0,68,0.00,,,0.07,,2015-01-30 17:44:00,
2015-01-30 12:53:00,21.0,13.0,30.32,NNE,21,10.0,16.0,71,0.00,,,0.07,,2015-01-30 17:53:00,